Location: Cold Norton
(51.6667°N, 0.6667°E)
Time: 17:50:40
(UTC+00:00)

Cosmos 220 Rocket - Pass Details

Date: 18 November 2025
Orbit: 541 x 577 km, 74.0° (Epoch: 10 December)

Event Time Altitude Azimuth Distance (km) Brightness Sun altitude
Rises 18:04:44 0° 338° (NNW) 2,748 7.6 -18.5°
Reaches altitude 10° 18:06:59 10° 344° (NNW) 1,854 6.6 -18.8°
Enters shadow 18:10:55 48° 56° (NE) 746 4.1 -19.4°
